User: anonymous
Location: Austin, TX
(30.3000°N, 97.7500°W)
Time: 14:56:39
(UTC-05:00)
Language:

Cosmos 2082 Rocket - Orbit

View from above orbital plane
View from above orbital plane
View from above satellite
View from above satellite

Ground track
Ground track

The orbit data is extracted from the following two-line orbital elements,

1 20625U 90046B   14293.83422194  .00000260  00000-0  15985-3 0  8499
2 20625 071.0012 025.6123 0012929 148.5416 314.9958 14.14535440260614
Epoch (UTC): 20 October 2014 20:01:16
Eccentricity: 0.0012929
inclination: 71.0012°
perigee height: 834 km
apogee height: 853 km
right ascension of ascending node: 25.6123°
argument of perigee: 148.5416°
revolutions per day: 14.14535440
mean anomaly at epoch: 314.9958°
orbit number at epoch: 26061

The dashed part of the orbit path shows where the satellite is in the earth's shadow,  

DLR